Renton, WA
on Wednesday, January 2, 2013

Wednesday
Previous Day Next Day
Daily Summary
 ActualAverage (KSEA)Record (KSEA)
Temperature
Mean Temperature °F 41°F  
Max Temperature 46°F 46°F 56°F (2003)
Min Temperature 27°F 36°F 6°F (1950)
Degree Days
Heating Degree Days 28 24  
Month to date heating degree days 48  
Since 1 July heating degree days 1986  
Cooling Degree Days 0 0  
Month to date cooling degree days 0  
Year to date cooling degree days 0  
Moisture
Dew Point 24°F   
Average Humidity 69    
Maximum Humidity 100    
Minimum Humidity 37    
Precipitation
Precipitation 0.00 in 0.18 in 1.77 in (2007)
Month to date precipitation 0.36  
Year to date precipitation 0.36  
Snow
Snow 0.00 in in 2.60 in (1965)
Month to date snowfall  
Since 1 July snowfall  
Snow Depth in   
Wind
Wind Speed 2 mph   
Max Wind Speed 9 mph   
Max Gust Speed 17 mph   
Visibility 9 miles   
Events     

Key: T is trace of precipitation, MM is missing value
Source: NWS Daily Summary
Time(PST)TemperatureDew PointHumidity Pressure Visibility Wind DirectionWind SpeedGust SpeedPrecipitationEvents Conditions
12:29 AM 28.4°F 28.4°F 100% 30.35 in 7.0 miles Calm Calm - N/A   Scattered Clouds
12:53 AM 30.0°F 28.0°F 92% 30.37 in 7.0 miles Calm Calm - N/A   Partly Cloudy
1:53 AM 28.9°F 27.0°F 92% 30.35 in 7.0 miles Calm Calm - N/A   Clear
2:53 AM 32.0°F 30.0°F 92% 30.34 in 10.0 miles Calm Calm - N/A   Clear
3:53 AM 28.4°F 26.6°F 93% 30.31 in 7.0 miles Calm Calm - N/A   Clear
4:53 AM 28.9°F 28.0°F 96% 30.32 in 7.0 miles Calm Calm - N/A   Clear
5:53 AM 30.0°F 28.0°F 92% 30.31 in 8.0 miles Calm Calm - N/A   Clear
6:53 AM 28.4°F 26.6°F 93% 30.30 in 7.0 miles Calm Calm - N/A   Clear
7:53 AM 27.0°F 25.0°F 92% 30.31 in 6.0 miles Calm Calm - N/A   Clear
8:53 AM 28.0°F 27.0°F 96% 30.32 in 6.0 miles SE 5.8 mph - N/A   Clear
9:53 AM 32.0°F 28.9°F 88% 30.33 in 7.0 miles Calm Calm - N/A   Clear
10:53 AM 35.1°F 28.9°F 78% 30.32 in 8.0 miles Calm Calm - N/A   Clear
11:53 AM 43.0°F 27.0°F 53% 30.30 in 10.0 miles SSE 3.5 mph - N/A   Clear
12:53 PM 45.0°F 26.1°F 48% 30.28 in 10.0 miles SSE 4.6 mph - N/A   Clear
1:53 PM 46.9°F 21.9°F 37% 30.27 in 10.0 miles SE 6.9 mph - N/A   Unknown
2:53 PM 46.0°F 21.0°F 37% 30.26 in 10.0 miles SSE 6.9 mph - N/A   Clear
3:53 PM 44.1°F 21.0°F 40% 30.27 in 10.0 miles SSE 5.8 mph - N/A   Clear
4:53 PM 41.0°F 21.9°F 47% 30.26 in 10.0 miles SE 5.8 mph - N/A   Clear
5:53 PM 39.9°F 19.9°F 45% 30.26 in 10.0 miles ESE 4.6 mph - N/A   Clear
6:53 PM 39.0°F 19.9°F 46% 30.25 in 10.0 miles ESE 4.6 mph - N/A   Clear
7:53 PM 37.9°F 19.0°F 47% 30.24 in 10.0 miles Calm Calm - N/A   Clear
8:53 PM 36.0°F 19.0°F 50% 30.23 in 10.0 miles SE 3.5 mph - N/A   Clear
9:53 PM 37.9°F 19.0°F 47% 30.23 in 10.0 miles East 9.2 mph 17.3 mph N/A   Clear
10:53 PM 33.1°F 19.9°F 59% 30.22 in 10.0 miles Calm Calm - N/A   Clear
11:53 PM 30.2°F 23.0°F 75% 30.20 in 10.0 miles Calm Calm - N/A   Clear
Moon Phase
Jan. 02 Jan. 04 Jan. 11 Jan. 18 Jan. 26
Sunrise:07:56 AM (PST) Moon Rise:10:33 PM (PST)
Sunset:04:29 PM (PST) Moon Set:10:17 AM (PST)

Copyright © 2014 The Weather Underground, Inc.